Regional Weather Roundup
Issued by NWS

Home | Current Version | Previous Version | Graphics & Text | Print | Product List | Glossary On
Versions: 1 2 3 4 5 6 7 8 9 10 11 12 13 14 15 16 17 18 19 20 21 22 23 24 25 26 27 28 29 30 31 32 33 34 35 36 37 38 39 40 41 42 43 44 45 46 47 48 49 50
000
ASUS43 KDTX 030810
RWRMI
MICHIGAN HOURLY REGIONAL WEATHER ROUNDUP
NATIONAL WEATHER SERVICE DETROIT/PONTIAC MI
400 AM EDT SUN MAY 03 2015

NOTE: "FAIR" INDICATES FEW OR NO CLOUDS BELOW 12,000 FEET WITH NO
SIGNIFICANT WEATHER AND/OR OBSTRUCTION TO VISIBILITY.

MIZ047>049-052>055-059>063-066>070-074>076-081>083-030900-
SOUTHEAST LOWER MICHIGAN

CITY           SKY/WX    TMP DP  RH WIND       PRES   REMARKS
ADRIAN         FAIR      53  39  59 W5        30.03S
ALMA           MOCLDY    54  37  52 SW6       29.97S
ANN ARBOR      CLEAR     44  41  89 W3        30.02R
BAD AXE        CLEAR     50  35  56 SW3       29.97S
CARO           CLEAR     46  37  73 CALM      29.97S
DETROIT CITY   CLEAR     54  42  64 SW5       30.01R
DETROIT        CLEAR     54  40  59 S5        30.02R
FLINT          MOCLDY    52  38  58 S5        29.99S
HILLSDALE      PTCLDY    59  39  47 SW5       30.03R
HOWELL         CLEAR     54  37  52 S5        30.00S

CITY           SKY/WX    TMP DP  RH WIND       PRES   REMARKS
JACKSON        CLEAR     53  39  59 SW7       30.01S
LAMBERTVILLE   CLEAR     50  43  76 CALM      30.03S
LANSING        CLEAR     54  36  50 CALM      29.99F
LAPEER         MOCLDY    45  42  89 CALM      29.99S
MASON          CLEAR     49  38  66 CALM      30.00S
MONROE         CLEAR     50  45  81 CALM      30.01S
PONTIAC        CLEAR     49  41  74 CALM      30.00S
PORT HOPE        N/A     55  35  47 SW7       29.94S
PORT HURON     CLEAR     45  43  93 CALM      30.00R
TRI CITIES     CLEAR     58  34  40 S8        29.97S
MIDLAND        MOCLDY    49  36  61 CALM      29.95S
TROY           CLEAR     55  42  60 W3        30.02S
SAGINAW HB     CLEAR     54  34  47 S8        29.96S
$$
MIZ043>046-050>051-056>058-064>065-071>073-077>080-030900-
SOUTHWEST LOWER MICHIGAN

CITY           SKY/WX    TMP DP  RH WIND       PRES   REMARKS
BATTLE CREEK   CLEAR     54  39  57 SW8       30.00F
BENTON HARBOR  PTCLDY    55  39  54 S3        29.99S
BIG RAPIDS     MOCLDY    62  33  34 SW8       29.94S
COLDWATER      PTCLDY    54  39  56 SW6       30.01S
FREMONT        CLOUDY    55  33  44 S5        29.95S
HOLLAND        CLEAR     55  38  52 SW5       29.98S
GRAND RAPIDS   CLEAR     55  37  50 S8        29.98S
IONIA          FAIR      56  38  50 SW3       29.97S
KALAMAZOO      PTCLDY    49  41  74 S7        30.00S
LUDINGTON      PTCLDY    61  36  39 S13       29.93S
MARSHALL       CLEAR     56  39  53 SW5       30.00S
MOUNT PLEASANT MOCLDY    59  33  37 S6        29.95S
MUSKEGON       CLEAR     59  37  44 S9        29.96R
SOUTH HAVEN    PTCLDY    60  37  41 S5        29.98S
$$
MIZ016>042-030900-
NORTHERN LOWER MICHIGAN

CITY           SKY/WX    TMP DP  RH WIND       PRES   REMARKS
ALPENA         CLOUDY    47  41  80 S6        29.91F
BEAVER ISLAND  CLOUDY    57  34  41 SW14G24   29.87S
BELLAIRE       PTCLDY    48  41  76 CALM      29.91R
CADILLAC       CLEAR     42  35  77 CALM      29.94S
CHARLEVOIX     PTCLDY    61  37  40 SW10G16   29.91S
FRANKFORT      CLEAR     63  31  31 SW8       29.91S
GAYLORD        PTCLDY    56  36  47 SW9       29.92S
GRAYLING       PTCLDY    57  34  41 SW7       29.94R
HARBOR SPRINGS MOCLDY    60  37  42 CALM      29.89S
HOUGHTON LAKE  PTCLDY    53  37  54 CALM      29.94F
MANISTEE       CLEAR     48  36  61 E3        29.92F
OSCODA         CLEAR     50  37  61 S5        29.93S
PELLSTON       PTCLDY    62  37  39 SW8       29.88S
ROGERS CITY    PTCLDY    57  40  52 SW7       29.90S
TRAVERSE CITY  CLEAR     61  35  37 S6        29.89S
$$
MIZ007>008-015-030900-
EASTERN UPPER MICHIGAN

CITY           SKY/WX    TMP DP  RH WIND       PRES   REMARKS
KINROSS        PTCLDY    46  39  76 S3        29.87S
MACKINAC ISLAN MOCLDY    49  40  71 S6        29.87S
NEWBERRY       PTCLDY    50  35  57 SW14G22   29.84F
S. S. MARIE    PTCLDY    47  39  74 SE3       29.87F
MUNISING         N/A     54  38  54 S12       29.80S
$$
MIZ004>006-011>014-085-030900-
CENTRAL UPPER MICHIGAN

CITY           SKY/WX    TMP DP  RH WIND       PRES   REMARKS
MANISTIQUE     MOCLDY    42  36  80 S7        29.85S
ESCANABA       CLEAR     41  36  81 CALM      29.83S
MENOMINEE      CLEAR     57  43  58 SW7       29.85S
SAWYER-GWINN   CLEAR     49  41  74 S7        29.82S
$$
MIZ001>003-009>011-084-030900-
WESTERN UPPER MICHIGAN

CITY           SKY/WX    TMP DP  RH WIND       PRES   REMARKS
IRON MOUNTAIN  CLEAR     61  44  53 SW6       29.81F
HOUGHTON       PTCLDY    53  41  63 S7        29.74F
COPPER HARBOR    N/A     57  41  55 W9        29.72F
IRONWOOD       MOCLDY    63  48  59 SW10      29.72S
$$

ABBREVIATIONS USED IN REMARKS
   TC - TEMPERATURE IN CELSIUS
  WCI - WIND CHILL INDEX
   HX - HEAT INDEX
  VSB - VISIBILITY




USA.gov is the U.S. government's official web portal to all federal, state and local government web resources and services.